This demonstration page uses our WeatherBlox Daily Observations layout. Learn more.

Left ArrowRight Arrow

Hourly Observations for May 30, 2020

Temp ( °F °C ) Dew Point ( °F °C ) Humidity (%) Winds ( mph kmh ) Pressure ( in mb ) Visibility ( mi km ) Precip ( " mm )
12:52 am 00:52 Clear 58 14.4 51 10.6 78 78 Calm 30.19 1022 10 16 0.00 0.00
1:52 am 01:52 Cloudy 57 13.9 52 11.1 83 83 Calm 30.18 1022 10 16 0.00 0.00
2:52 am 02:52 Cloudy 56 13.3 52 11.1 87 87 NW 3 6 30.18 1022 10 16 0.00 0.00
3:52 am 03:52 Mostly Cloudy 55 12.8 50 10 83 83 Calm 30.18 1022 10 16 0.00 0.00
4:52 am 04:52 Mostly Cloudy 54 12.2 50 10 87 87 N 3 6 30.19 1022 10 16 0.00 0.00
5:52 am 05:52 Mostly Cloudy 55 12.8 50 10 83 83 W 7 11 30.20 1023 10 16 0.00 0.00
6:52 am 06:52 Cloudy 56 13.3 51 10.6 84 84 N 7 11 30.22 1024 10 16 0.00 0.00
7:52 am 07:52 Cloudy 57 13.9 52 11.1 83 83 N 7 11 30.26 1025 10 16 0.00 0.00
8:52 am 08:52 Cloudy with Rain 56 13.3 53 11.7 90 90 NW 3 6 30.29 1026 5 8 0.02 0.51
9:52 am 09:52 Cloudy with Light Rain 56 13.3 52 11.1 87 87 Calm 30.28 1025 5 8 0.15 3.81
10:52 am 10:52 Cloudy with Light Rain 57 13.9 54 12.2 90 90 Calm 30.27 1025 7 11 0.05 1.27
11:52 am 11:52 Cloudy with Light Rain 57 13.9 54 12.2 90 90 Calm 30.28 1025 10 16 0.06 1.52
12:52 pm 12:52 Cloudy with Light Rain 58 14.4 55 12.8 90 90 SSE 3 6 30.29 1026 9 14 0.09 2.29
1:52 pm 13:52 Cloudy with Light Rain 58 14.4 54 12.2 87 87 SE 5 7 30.27 1025 10 16 0.05 1.27
2:52 pm 14:52 Cloudy 59 15 55 12.8 87 87 E 6 9 30.26 1025 10 16 0.00 0.00
3:52 pm 15:52 Cloudy with Light Rain 59 15 55 12.8 87 87 SE 6 9 30.27 1025 9 14 0.00 0.00
4:52 pm 16:52 Cloudy 59 15 55 12.8 87 87 SE 3 6 30.25 1024 10 16 0.00 0.00
5:52 pm 17:52 Cloudy 59 15 55 12.8 87 87 S 6 9 30.24 1024 10 16 0.00 0.00
6:52 pm 18:52 Cloudy 59 15 55 12.8 87 87 Calm 30.24 1024 10 16 0.00 0.00
7:52 pm 19:52 Cloudy 59 15 56 13.3 90 90 SSE 3 6 30.23 1024 10 16 0.00 0.00
8:52 pm 20:52 Cloudy 59 15 57 13.9 93 93 ESE 3 6 30.22 1024 10 16 0.00 0.00
9:52 pm 21:52 Cloudy 59 15 56 13.3 90 90 ESE 3 6 30.23 1024 10 16 0.00 0.00
10:52 pm 22:52 Cloudy 59 15 55 12.8 87 87 Calm 30.24 1024 10 16 0.00 0.00
11:52 pm 23:52 Cloudy 59 15 55 12.8 87 87 SSE 3 6 30.24 1024 10 16 0.00 0.00

Powered by AerisWeather